This is the latest recevied weather packets stored in our database for station/object N5SRF. If no packets are shown the sender has not sent any weather packets the latest 10 day(s).
| Time | Temp. | Humidity | Pressure | Rain* | Wind** | Luminosity | Snow |
|---|---|---|---|---|---|---|---|
| 1778027442 | 26.11° C | 89% | 1011 hPa | 0 mm | - | 20 W/m² | - |
| 1778027137 | 26.67° C | 89% | 1010.7 hPa | 0 mm | - | 30 W/m² | - |
| 1778026834 | 26.67° C | 88% | 1010.8 hPa | 0 mm | - | 37 W/m² | - |
| 1778026531 | 26.67° C | 87% | 1010.7 hPa | 0 mm | - | 32 W/m² | - |
| 1778026228 | 26.67° C | 87% | 1010.7 hPa | 0 mm | - | 39 W/m² | - |
| 1778025926 | 26.67° C | 86% | 1010.6 hPa | 0 mm | - | 36 W/m² | - |
| 1778025623 | 26.67° C | 86% | 1010.7 hPa | 0 mm | - | 42 W/m² | - |
| 1778025320 | 27.22° C | 86% | 1010.8 hPa | 0 mm | - | 56 W/m² | - |
| 1778025016 | 27.22° C | 86% | 1010.8 hPa | 0 mm | - | 30 W/m² | - |
| 1778024714 | 27.22° C | 85% | 1010.7 hPa | 0 mm | - | 44 W/m² | - |
| 1778024410 | 27.78° C | 84% | 1010.7 hPa | 0 mm | - | 56 W/m² | - |
| 1778024108 | 27.78° C | 83% | 1010.6 hPa | 0 mm | - | 91 W/m² | - |
| 1778023805 | 27.78° C | 83% | 1010.8 hPa | 0 mm | - | 98 W/m² | - |
| 1778023503 | 27.78° C | 82% | 1010.8 hPa | 0 mm | - | 91 W/m² | - |
| 1778023200 | 27.78° C | 82% | 1010.6 hPa | 0 mm | - | 88 W/m² | - |
| 1778022897 | 27.78° C | 82% | 1010.8 hPa | 0 mm | - | 131 W/m² | - |
| 1778022595 | 27.78° C | 83% | 1010.7 hPa | 0 mm | - | 158 W/m² | - |
| 1778022293 | 27.78° C | 82% | 1010.7 hPa | 0 mm | - | 121 W/m² | - |
| 1778021989 | 27.78° C | 83% | 1010.8 hPa | 0 mm | - | 91 W/m² | - |
| 1778021686 | 27.78° C | 83% | 1010.6 hPa | 0 mm | - | 68 W/m² | - |
| 1778021382 | 28.33° C | 81% | 1010.6 hPa | 0 mm | - | 143 W/m² | - |
| 1778021079 | 28.33° C | 81% | 1010.7 hPa | 0 mm | - | 137 W/m² | - |
| 1778020776 | 28.33° C | 80% | 1010.6 hPa | 0 mm | - | 110 W/m² | - |
| 1778020473 | 28.33° C | 79% | 1010.7 hPa | 0 mm | - | 151 W/m² | - |
| 1778020169 | 28.33° C | 80% | 1010.7 hPa | 0 mm | - | 206 W/m² | - |
* Rain latest hour (hover to see other rain measurements)
** Current wind speed in m/s (hover to see current wind gust speed)